Вернуться в каталог

YUNYAO-1 19

АктивенНаукаVLEO
NORAD 58759·PAYLOAD·🇨🇳 China

Запущен Jan 11, 2024 с Yellow Sea Launch Area

Loading…

Ближайшие Пролёты (ближайшие 24 часа)

TLE

СвежийSource: Space-Track

Эпоха: Sep 14, 2026, 15:03 UTC

1 58759U 24009B   26257.62710618  .00007628  00000-0  36989-3 0  9993
2 58759  49.9838  89.6800 0004918 281.7825  78.2576 15.19368944148269

Отслеживайте YUNYAO-1 19 в реальном времени с AllMySat

Download on the App Store